sat.trackr.live / text

‹ back to catalog

ONEWEB-0431

NORAD 51630 · 2022-012J

PAYLOAD ACTIVE UNKNOWN

§ Identity

Operator
Country
UK
Launch date
2022-02-10
Launch site
FRGUI
Launch vehicle
Mass (kg)
RCS (m²)

Purposes: comms

External: N2YO · Heavens-Above · Gunter

§ Orbital elements

Epoch: 2026-09-20T02:56:13.544736Z

Period
109.89 min
Inclination
87.8911°
Eccentricity
0.0001263
Mean motion
13.10373111 rev/d
Perigee alt
1,220.8 km
Apogee alt
1,222.7 km
Semi-major
7,599.9 km
B*
-1.9485e-3
RAAN
17.3682°
Arg perigee
91.7051°
Mean anomaly
268.4221°
Rev number
22,177

§ Raw data

ONEWEB-04311 51630U 22012J   26263.12237899 -.00000667  00000+0 -19485-2 0  99912 51630  87.8911  17.3682 0001263  91.7051 268.4221 13.10373111221778

JSON: /api/v1/satellites/51630 · /tle

For live sub-satellite position, see the globe view (requires WebGL).

§ Visibility from observer

Set your observer location to see the next 7 days of passes ≥ 10°. The values pass through the URL so the page stays shareable.

No JS? Fill the form by hand. The geolocation button needs JavaScript.